Regional Weather Roundup
Issued by NWS

Home | Current Version | Previous Version | Graphics & Text | Print | Product List | Glossary On
Versions: 1 2 3 4 5 6 7 8 9 10 11 12 13 14 15 16 17 18 19 20 21 22 23 24 25 26 27 28 29 30 31 32 33 34 35 36 37 38 39 40 41 42 43 44 45 46 47 48 49 50
000
ASUS43 KFSD 011602
RWRSD

WEATHER ROUNDUP FOR SOUTH DAKOTA
NATIONAL WEATHER SERVICE SIOUX FALLS SD
1100 AM CDT WED JUL 01 2015

NOTE: "FAIR" INDICATES FEW OR NO CLOUDS BELOW 12,000 FEET WITH NO
SIGNIFICANT WEATHER AND/OR OBSTRUCTIONS TO VISIBILITY.


SDZ001>005-009-010-012>017-011700-
NORTHWEST AND NORTH CENTRAL SOUTH DAKOTA

CITY           SKY/WX    TMP DP  RH WIND       PRES   REMARKS
BUFFALO          N/A     70  62  76 NE12      29.94R
FAITH            N/A     65  63  93 N6        29.96R
MOBRIDGE       CLOUDY    74  67  78 E12       29.90S
$$

SDZ012>016-024>037-041>051-057-063-072>074-011700-
SOUTHWEST AND SOUTH CENTRAL SOUTH DAKOTA

CITY           SKY/WX    TMP DP  RH WIND       PRES   REMARKS
RAPID CTY ARPT SUNNY     79  59  50 N24G32    29.98F
PIERRE         CLOUDY    74  65  73 VRB5      29.88S
CUSTER         SUNNY     77  46  33 N8G16     30.14S
PHILIP         PTSUNNY   73  66  78 W8        29.92S
PINE RIDGE     SUNNY     81  63  54 N8        30.00R
WINNER         FAIR      77  64  64 E6        29.89F
$$

SDZ004>011-016>023-039-040-011700-
NORTHEAST SOUTH DAKOTA

CITY           SKY/WX    TMP DP  RH WIND       PRES   REMARKS
ABERDEEN       CLOUDY    70  64  81 E8        29.92S
WATERTOWN      CLOUDY    64  60  87 VRB6      29.96R
BROOKINGS      CLOUDY    64  57  77 E13       29.97S
SISSETON         N/A     66  61  84 S9        29.94F
$$

SDZ017-020-022-023-036>040-048>070-011700-
SOUTHEAST SOUTH DAKOTA

CITY           SKY/WX    TMP DP  RH WIND       PRES   REMARKS
SIOUX FALLS    CLOUDY    66  62  87 SE12      29.93S
HURON          PTSUNNY   73  65  75 SE7       29.91R
CHAMBERLAIN    CLOUDY    73  65  74 E9        29.89S
MITCHELL       CLOUDY    71  67  87 SE6       29.91R FOG
YANKTON        PTSUNNY   72  66  83 SE8       29.89S
$$

ABBREVIATIONS USED IN REMARKS
   TC - TEMPERATURE IN CELSIUS
  WCI - WIND CHILL INDEX
   HX - HEAT INDEX
  VSB - VISIBILITY




USA.gov is the U.S. government's official web portal to all federal, state and local government web resources and services.